Home > Weather > Utsunomiya > Past weeks

Flag for Japan Past Weather in Utsunomiya, Japan — Yesterday and Last 2 Weeks

Now
83 °F

Warm.


Feels Like: 87 °F
Forecast: 66 / 87 °F
Wind: 7 mph from East

Location: Mito

Current Time: Jul 30, 2016 at 6:24:54 PM

Latest Report: Jul 30, 2016 at 5:00 PM


Visibility: N/A

Pressure: 29.93 "Hg

Humidity: 69%

Dew Point: 71 °F

Location of UtsunomiyaLocation

Past Weather in Utsunomiya — Graph

°F

Utsunomiya Temperature Yesterday

Maximum temperature yesterday: 87 °F (at 12:00 PM)
Minimum temperature yesterday: 75 °F (at 3:00 AM)
Average temperature yesterday: 81 °F

High & Low Weather Summary for the Past Weeks

 TemperatureHumidityPressure
High87 °F (Jul 29, 12:00 PM)96% (Jul 18, 1:00 AM)30.02 "Hg (Jul 18, 1:00 AM)
Low62 °F (Jul 23, 5:00 AM)50% (Jul 30, 10:00 AM)29.57 "Hg (Jul 15, 5:00 PM)
Average75 °F78%29.88 "Hg
* Reported Jul 15 5:00 PM — Jul 30 5:00 PM, Utsunomiya, Weather by CustomWeather, © 2016

Note: Actual official high and low records may vary slightly from our data, if they occured in-between our weather recording intervals... More about our weather records

Advertising

Utsunomiya Weather History for the Previous 24 Hours

Scroll right to see more
 ConditionsComfort  
Time TempWeatherWind HumidityBarometerVisibility
5:00 PM
Sat, Jul 30
83 °FWarm.7 mph69%29.93 "HgN/A
4:00 PM84 °FWarm.9 mph61%29.92 "HgN/A
3:00 PM84 °FPassing clouds.9 mph67%29.92 "Hg19 mi
2:00 PM86 °FWarm.10 mph64%29.92 "HgN/A
1:00 PM87 °FWarm.8 mph60%29.93 "HgN/A
12:00 PM87 °FWarm.8 mph58%29.94 "HgN/A
11:00 AM86 °FWarm.6 mph57%29.96 "HgN/A
10:00 AM86 °FWarm.2 mph50%29.97 "HgN/A
9:00 AM85 °FPassing clouds.3 mph53%29.97 "Hg25 mi
8:00 AM80 °FWarm.2 mph67%29.97 "HgN/A
7:00 AM76 °FMild.2 mph83%29.98 "HgN/A
6:00 AM71 °FMild.3 mph92%29.97 "HgN/A
5:00 AM70 °FMild.3 mph95%29.95 "HgN/A
4:00 AM70 °FMild.3 mph95%29.95 "HgN/A
3:00 AM71 °FPassing clouds.3 mph95%29.94 "Hg12 mi
2:00 AM72 °FMild.1 mph94%29.94 "HgN/A
1:00 AM74 °FMild.1 mph89%29.95 "HgN/A
12:00 AM76 °FMild.2 mph86%29.96 "HgN/A
11:00 PM
Fri, Jul 29
76 °FMild.5 mph84%29.97 "HgN/A
10:00 PM77 °FMild.3 mph80%29.97 "HgN/A
9:00 PM78 °FPassing clouds.6 mph74%29.96 "Hg19 mi
8:00 PM79 °FWarm.5 mph72%29.95 "HgN/A
7:00 PM79 °FWarm.6 mph72%29.94 "HgN/A
6:00 PM81 °FWarm.7 mph67%29.92 "HgN/A
Weather by CustomWeather, © 2016

See weather overviewHow to use our weather pages